Location: Argonnex
(45.9500°N, 6.1333°E)
Time: 12:31:01
(UTC+00:00)

Cosmos 2266 Rocket - Pass Details

Date: 12 August 2024
Orbit: 933 x 1007 km, 82.9° (Epoch: 14 September)

Event Time Altitude Azimuth Distance (km) Brightness Sun altitude
Rises 23:20:54 0° 3° (N) 3,601 8.2 -29.3°
Reaches altitude 10° 23:24:23 10° 24° (NNE) 2,654 7.0 -29.4°
Maximum altitude 23:28:13 17° 63° (ENE) 2,184 6.0 -29.4°
Enters shadow 23:30:45 14° 92° (E) 2,403 6.0 -29.4°
